Atwater, CA

10:41 PM PDT on July 27, 2017 (GMT -0700)
Castle

Weather History for KMER - October, 2012

Change the Weather History Date:

Wednesday, October 24, 2012

  Actual Average (KMCE) Record (KMCE)
Temperature  
Mean Temperature 56 °F -  
Max Temperature 69 °F 78 °F 88 °F (2007)
Min Temperature 44 °F 46 °F 40 °F (2002)
Degree Days  
Heating Degree Days 8    
Growing Degree Days 6 (Base 50)    
Moisture  
Dew Point 46 °F    
Average Humidity 86    
Maximum Humidity 100    
Minimum Humidity 38    
Precipitation  
Precipitation 0.00 in - - ()
Sea Level Pressure  
Sea Level Pressure 30.11 in    
Wind  
Wind Speed 4 mph (NNW)    
Max Wind Speed 8 mph    
Max Gust Speed -    
Visibility 8 miles    
Events      
Averages and records for this station are not official NWS values.
T = Trace of Precipitation, MM = Missing Value Source: NWS Daily Summary

Daily Weather History Graph

Daily Weather History Graph

Search for Another Location

Airport or City:

Trip Planner

Search our weather history database for the weather conditions in past years. The results will help you decide how hot, cold, wet, or windy it might be!

Date:

Astronomy

Oct. 24, 2012 Rise Set
Actual Time 7:19 AM PDT 6:12 PM PDT
Civil Twilight 6:52 AM PDT 6:39 PM PDT
Nautical Twilight 6:22 AM PDT 7:09 PM PDT
Astronomical Twilight 5:51 AM PDT 7:40 PM PDT
Moon 3:26 PM PDT (10/24) 2:25 AM PDT (10/24)
Length of Visible Light 11h 46m
Length of Day
10h 53m
Waxing Gibbous, 77% of the Moon is Illuminated
Oct 24
Waxing Gibbous
Oct 29
Full
Nov 6
Last Quarter
Nov 13
New
Nov 20
First Quarter

Hourly Weather History & Observations

Time (PDT) Temp. Windchill Dew Point Humidity Pressure Visibility Wind Dir Wind Speed Gust Speed Precip Events Conditions
12:15 AM 46.4 °F 42.9 °F 46.4 °F 100% 30.04 in 5.0 mi North 6.9 mph - N/A   Clear
12:35 AM 48.2 °F - 46.4 °F 93% 30.04 in 7.0 mi NNE 6.9 mph - N/A   Clear
12:55 AM 48.2 °F - 46.4 °F 93% 30.04 in 10.0 mi NNE 8.1 mph - N/A   Clear
1:15 AM 46.4 °F 43.5 °F 46.4 °F 100% 30.04 in 9.0 mi North 5.8 mph - N/A   Clear
1:35 AM 44.6 °F 41.4 °F 44.6 °F 100% 30.05 in 5.0 mi North 5.8 mph - N/A   Clear
1:55 AM 44.6 °F - 44.6 °F 100% 30.05 in 2.5 mi North - - N/A   Clear
2:15 AM 44.6 °F 42.2 °F 44.6 °F 100% 30.06 in 6.0 mi North 4.6 mph - N/A   Clear
2:35 AM 44.6 °F - 44.6 °F 100% 30.06 in 7.0 mi North - - N/A   Clear
2:55 AM 44.6 °F - 44.6 °F 100% 30.07 in 3.0 mi North - - N/A   Clear
3:15 AM 44.6 °F - 44.6 °F 100% 30.06 in 3.0 mi North - - N/A   Partly Cloudy
3:35 AM 44.6 °F - 44.6 °F 100% 30.07 in 7.0 mi Calm Calm - N/A   Scattered Clouds
3:55 AM 44.6 °F 43.1 °F 44.6 °F 100% 30.07 in 2.5 mi NW 3.5 mph - N/A   Mostly Cloudy
4:15 AM 46.4 °F 45.2 °F 46.4 °F 100% 30.06 in 3.0 mi NW 3.5 mph - N/A   Mostly Cloudy
4:35 AM 46.4 °F - 46.4 °F 100% 30.06 in 6.0 mi Calm Calm - N/A   Mostly Cloudy
4:55 AM 46.4 °F 44.3 °F 46.4 °F 100% 30.07 in 4.0 mi NW 4.6 mph - N/A   Scattered Clouds
5:15 AM 48.2 °F - 48.2 °F 100% 30.08 in 9.0 mi NW 5.8 mph - N/A   Overcast
5:35 AM 48.2 °F - 48.2 °F 100% 30.08 in 10.0 mi NW 4.6 mph - N/A   Overcast
5:55 AM 48.2 °F - 48.2 °F 100% 30.08 in 8.0 mi WNW 3.5 mph - N/A   Scattered Clouds
6:15 AM 48.2 °F - 48.2 °F 100% 30.08 in 2.5 mi Calm Calm - N/A   Mostly Cloudy
6:45 AM 46.4 °F - 46.4 °F 100% 30.08 in 10.0 mi Calm Calm - N/A   Mostly Cloudy
6:55 AM 44.6 °F - 44.6 °F 100% 30.09 in 10.0 mi Calm Calm - N/A   Partly Cloudy
7:45 AM 44.6 °F - 44.6 °F 100% 30.10 in 10.0 mi Calm Calm - N/A   Scattered Clouds
8:45 AM 48.2 °F - 48.2 °F 100% 30.12 in 10.0 mi Calm Calm - N/A   Overcast
9:45 AM 53.6 °F - 53.6 °F 100% 30.15 in 10.0 mi Variable 3.5 mph - N/A   Overcast
10:45 AM 57.2 °F - 51.8 °F 82% 30.16 in 10.0 mi Variable 3.5 mph - N/A   Overcast
11:45 AM 60.8 °F - 50.0 °F 68% 30.17 in 10.0 mi Variable 3.5 mph - N/A   Overcast
12:45 PM 62.6 °F - 44.6 °F 52% 30.17 in 10.0 mi Calm Calm - N/A   Mostly Cloudy
2:45 PM 69.8 °F - 42.8 °F 38% 30.13 in 10.0 mi Variable 3.5 mph - N/A   Clear
3:45 PM 69.8 °F - 42.8 °F 38% 30.13 in 10.0 mi Calm Calm - N/A   Clear
4:45 PM 68.0 °F - 42.8 °F 40% 30.14 in 10.0 mi Variable 3.5 mph - N/A   Clear
5:45 PM 64.4 °F - 44.6 °F 49% 30.13 in 10.0 mi Variable 3.5 mph - N/A   Clear
6:45 PM 57.2 °F - 46.4 °F 67% 30.14 in 10.0 mi Calm Calm - N/A   Clear
7:45 PM 55.4 °F - 46.4 °F 72% 30.16 in 10.0 mi Calm Calm - N/A   Clear
8:45 PM 53.6 °F - 46.4 °F 77% 30.17 in 10.0 mi Calm Calm - N/A   Clear
9:15 PM 51.8 °F - 48.2 °F 88% 30.16 in 10.0 mi South 3.5 mph - N/A   Mostly Cloudy
9:35 PM 53.6 °F - 48.2 °F 82% 30.17 in 10.0 mi Calm Calm - N/A   Overcast
9:55 PM 55.4 °F - 48.2 °F 77% 30.17 in 10.0 mi NNW 4.6 mph - N/A   Overcast
10:15 PM 57.2 °F - 46.4 °F 67% 30.18 in 10.0 mi NNW 3.5 mph - N/A   Mostly Cloudy
10:35 PM 55.4 °F - 46.4 °F 72% 30.18 in 10.0 mi North - - N/A   Mostly Cloudy
10:55 PM 53.6 °F - 46.4 °F 77% 30.19 in 10.0 mi North - - N/A   Scattered Clouds
11:15 PM 53.6 °F - 48.2 °F 82% 30.19 in 10.0 mi Calm Calm - N/A   Partly Cloudy
11:35 PM 53.6 °F - 48.2 °F 82% 30.19 in 10.0 mi NNE 4.6 mph - N/A   Mostly Cloudy
11:55 PM 53.6 °F - 48.2 °F 82% 30.19 in 10.0 mi NNE 4.6 mph - N/A   Mostly Cloudy